This is the latest recevied weather packets stored in our database for station/object PA3BWK. If no packets are shown the sender has not sent any weather packets the latest 10 day(s).
| Time | Temp. | Humidity | Pressure | Rain* | Wind** | Luminosity | Snow |
|---|---|---|---|---|---|---|---|
| 1778244363 | 16.67° C | 55% | 1018.8 hPa | 0 mm | - | 213 W/m² | - |
| 1778244304 | 16.67° C | 56% | 1018.7 hPa | 0 mm | - | 206 W/m² | - |
| 1778244245 | 16.67° C | 55% | 1018.8 hPa | 0 mm | - | 208 W/m² | - |
| 1778244183 | 16.67° C | 55% | 1018.8 hPa | 0 mm | - | 215 W/m² | - |
| 1778244123 | 16.67° C | 57% | 1018.9 hPa | 0 mm | - | 222 W/m² | - |
| 1778244065 | 16.67° C | 54% | 1018.9 hPa | 0 mm | - | 229 W/m² | - |
| 1778244003 | 16.67° C | 54% | 1018.8 hPa | 0 mm | - | 238 W/m² | - |
| 1778243943 | 16.67° C | 55% | 1018.8 hPa | 0 mm | - | 238 W/m² | - |
| 1778243884 | 16.67° C | 56% | 1018.8 hPa | 0 mm | - | 245 W/m² | - |
| 1778243825 | 16.67° C | 55% | 1018.8 hPa | 0 mm | - | 245 W/m² | - |
| 1778243763 | 16.67° C | 54% | 1018.8 hPa | 0 mm | - | 243 W/m² | - |
| 1778243704 | 16.67° C | 53% | 1018.8 hPa | 0 mm | - | 245 W/m² | - |
| 1778243645 | 16.67° C | 53% | 1018.8 hPa | 0 mm | - | 246 W/m² | - |
| 1778243585 | 16.67° C | 53% | 1018.8 hPa | 0 mm | - | 248 W/m² | - |
| 1778243554 | 17.22° C | 54% | 1018.8 hPa | 0 mm | - | 252 W/m² | - |
| 1778243464 | 17.22° C | 55% | 1018.8 hPa | 0 mm | - | 255 W/m² | - |
| 1778243405 | 17.22° C | 56% | 1018.8 hPa | 0 mm | - | 262 W/m² | - |
| 1778243354 | 17.22° C | 55% | 1018.8 hPa | 0 mm | - | 271 W/m² | - |
| 1778243287 | 17.22° C | 55% | 1018.8 hPa | 0 mm | - | 278 W/m² | - |
| 1778243224 | 17.22° C | 57% | 1018.8 hPa | 0 mm | - | 287 W/m² | - |
| 1778243164 | 17.22° C | 57% | 1018.8 hPa | 0 mm | - | 308 W/m² | - |
| 1778243104 | 17.22° C | 55% | 1018.8 hPa | 0 mm | - | 320 W/m² | - |
| 1778243045 | 17.22° C | 56% | 1018.7 hPa | 0 mm | - | 331 W/m² | - |
| 1778242983 | 17.22° C | 55% | 1018.8 hPa | 0 mm | - | 338 W/m² | - |
| 1778242924 | 17.22° C | 57% | 1018.8 hPa | 0 mm | - | 339 W/m² | - |
* Rain latest hour (hover to see other rain measurements)
** Current wind speed in m/s (hover to see current wind gust speed)